owner,sensor,date,latitude,longitude,vertical_datum,sea_water_practical_salinity,qcFlag 
DISL,ioos:station:DISL:MHPA:1,2014-07-01T00:00:00Z,30.6671,-87.9365,1.151,0.11,1111122 
DISL,ioos:station:DISL:MHPA:1,2014-07-01T00:30:00Z,30.6671,-87.9365,1.116,0.11,1111122 
DISL,ioos:station:DISL:MHPA:1,2014-07-01T01:00:00Z,30.6671,-87.9365,1.082,0.11,1111122 
DISL,ioos:station:DISL:MHPA:1,2014-07-01T01:30:00Z,30.6671,-87.9365,1.048,0.11,1111122 
DISL,ioos:station:DISL:MHPA:1,2014-07-01T02:00:00Z,30.6671,-87.9365,1.015,0.11,1111122 
DISL,ioos:station:DISL:MHPA:1,2014-07-01T02:30:00Z,30.6671,-87.9365,0.984,0.11,1111122 
DISL,ioos:station:DISL:MHPA:1,2014-07-01T03:00:00Z,30.6671,-87.9365,0.955,0.11,1111122 
DISL,ioos:station:DISL:MHPA:1,2014-07-01T03:30:00Z,30.6671,-87.9365,0.931,0.11,1111122 
DISL,ioos:station:DISL:MHPA:1,2014-07-01T04:00:00Z,30.6671,-87.9365,0.918,0.11,1111122 
DISL,ioos:station:DISL:MHPA:1,2014-07-01T04:30:00Z,30.6671,-87.9365,0.91,0.11,1111122 
DISL,ioos:station:DISL:MHPA:1,2014-07-01T05:00:00Z,30.6671,-87.9365,0.897,0.11,1111122 
DISL,ioos:station:DISL:MHPA:1,2014-07-01T05:30:00Z,30.6671,-87.9365,0.89,0.11,1111122 
DISL,ioos:station:DISL:MHPA:1,2014-07-01T06:00:00Z,30.6671,-87.9365,0.887,0.11,1111122 
DISL,ioos:station:DISL:MHPA:1,2014-07-01T06:30:00Z,30.6671,-87.9365,0.887,0.11,1111122 
DISL,ioos:station:DISL:MHPA:1,2014-07-01T07:00:00Z,30.6671,-87.9365,0.884,0.11,1111122 
DISL,ioos:station:DISL:MHPA:1,2014-07-01T07:30:00Z,30.6671,-87.9365,0.899,0.11,1111122 
DISL,ioos:station:DISL:MHPA:1,2014-07-01T08:00:00Z,30.6671,-87.9365,0.917,0.11,1111122 
DISL,ioos:station:DISL:MHPA:1,2014-07-01T08:30:00Z,30.6671,-87.9365,0.937,0.11,1111122 
DISL,ioos:station:DISL:MHPA:1,2014-07-01T09:00:00Z,30.6671,-87.9365,0.962,0.11,1111122 
DISL,ioos:station:DISL:MHPA:1,2014-07-01T09:30:00Z,30.6671,-87.9365,0.983,0.11,1111122 
DISL,ioos:station:DISL:MHPA:1,2014-07-01T10:00:00Z,30.6671,-87.9365,0.996,0.11,1111122 
DISL,ioos:station:DISL:MHPA:1,2014-07-01T10:30:00Z,30.6671,-87.9365,1.01,0.11,1111122 
DISL,ioos:station:DISL:MHPA:1,2014-07-01T11:00:00Z,30.6671,-87.9365,1.043,0.11,1111122 
DISL,ioos:station:DISL:MHPA:1,2014-07-01T11:30:00Z,30.6671,-87.9365,1.052,0.11,1111122 
DISL,ioos:station:DISL:MHPA:1,2014-07-01T12:00:00Z,30.6671,-87.9365,1.044,0.11,1111122 
DISL,ioos:station:DISL:MHPA:1,2014-07-01T12:30:00Z,30.6671,-87.9365,1.04,0.11,1111122 
DISL,ioos:station:DISL:MHPA:1,2014-07-01T13:00:00Z,30.6671,-87.9365,1.039,0.11,1111122 
DISL,ioos:station:DISL:MHPA:1,2014-07-01T13:30:00Z,30.6671,-87.9365,1.035,0.11,1111122 
DISL,ioos:station:DISL:MHPA:1,2014-07-01T14:00:00Z,30.6671,-87.9365,1.03,0.11,1111122 
DISL,ioos:station:DISL:MHPA:1,2014-07-01T14:30:00Z,30.6671,-87.9365,1.03,0.11,1111122 
DISL,ioos:station:DISL:MHPA:1,2014-07-01T15:00:00Z,30.6671,-87.9365,1.027,0.11,1111122 
DISL,ioos:station:DISL:MHPA:1,2014-07-01T15:30:00Z,30.6671,-87.9365,1.042,0.11,1111122 
DISL,ioos:station:DISL:MHPA:1,2014-07-01T16:00:00Z,30.6671,-87.9365,1.061,0.11,1111122 
DISL,ioos:station:DISL:MHPA:1,2014-07-01T16:30:00Z,30.6671,-87.9365,1.079,0.11,1111122 
DISL,ioos:station:DISL:MHPA:1,2014-07-01T17:00:00Z,30.6671,-87.9365,1.107,0.11,1111122 
DISL,ioos:station:DISL:MHPA:1,2014-07-01T17:30:00Z,30.6671,-87.9365,1.129,0.11,1111122 
DISL,ioos:station:DISL:MHPA:1,2014-07-01T18:00:00Z,30.6671,-87.9365,1.144,0.11,1111122 
DISL,ioos:station:DISL:MHPA:1,2014-07-01T18:30:00Z,30.6671,-87.9365,1.147,0.11,1111122 
DISL,ioos:station:DISL:MHPA:1,2014-07-01T19:00:00Z,30.6671,-87.9365,1.164,0.11,1111122 
DISL,ioos:station:DISL:MHPA:1,2014-07-01T19:30:00Z,30.6671,-87.9365,1.177,0.11,1111122 
DISL,ioos:station:DISL:MHPA:1,2014-07-01T20:00:00Z,30.6671,-87.9365,1.169,0.11,1111122 
DISL,ioos:station:DISL:MHPA:1,2014-07-01T20:30:00Z,30.6671,-87.9365,1.169,0.11,1111122 
DISL,ioos:station:DISL:MHPA:1,2014-07-01T21:00:00Z,30.6671,-87.9365,1.164,0.11,1111122 
DISL,ioos:station:DISL:MHPA:1,2014-07-01T21:30:00Z,30.6671,-87.9365,1.151,0.12,1111122 
DISL,ioos:station:DISL:MHPA:1,2014-07-01T22:00:00Z,30.6671,-87.9365,1.134,0.11,1111122 
DISL,ioos:station:DISL:MHPA:1,2014-07-01T22:30:00Z,30.6671,-87.9365,1.131,0.11,1111122 
DISL,ioos:station:DISL:MHPA:1,2014-07-01T23:00:00Z,30.6671,-87.9365,1.143,0.11,1111122 
DISL,ioos:station:DISL:MHPA:1,2014-07-01T23:30:00Z,30.6671,-87.9365,1.154,0.11,1111122 
DISL,ioos:station:DISL:MHPA:1,2014-07-02T00:00:00Z,30.6671,-87.9365,1.126,0.11,1111122 
DISL,ioos:station:DISL:MHPA:1,2014-07-02T00:30:00Z,30.6671,-87.9365,1.111,0.11,1111122 
DISL,ioos:station:DISL:MHPA:1,2014-07-02T01:00:00Z,30.6671,-87.9365,1.094,0.11,1111122 
DISL,ioos:station:DISL:MHPA:1,2014-07-02T01:30:00Z,30.6671,-87.9365,1.063,0.11,1111122 
DISL,ioos:station:DISL:MHPA:1,2014-07-02T02:00:00Z,30.6671,-87.9365,1.038,0.11,1111122 
DISL,ioos:station:DISL:MHPA:1,2014-07-02T02:30:00Z,30.6671,-87.9365,1.016,0.11,1111122 
DISL,ioos:station:DISL:MHPA:1,2014-07-02T03:00:00Z,30.6671,-87.9365,0.991,0.11,1111122 
DISL,ioos:station:DISL:MHPA:1,2014-07-02T03:30:00Z,30.6671,-87.9365,0.967,0.11,1111122 
DISL,ioos:station:DISL:MHPA:1,2014-07-02T04:00:00Z,30.6671,-87.9365,0.948,0.11,1111122 
DISL,ioos:station:DISL:MHPA:1,2014-07-02T04:30:00Z,30.6671,-87.9365,0.931,0.11,1111122 
DISL,ioos:station:DISL:MHPA:1,2014-07-02T05:00:00Z,30.6671,-87.9365,0.916,0.11,1111122 
DISL,ioos:station:DISL:MHPA:1,2014-07-02T05:30:00Z,30.6671,-87.9365,0.911,0.11,1111122 
DISL,ioos:station:DISL:MHPA:1,2014-07-02T06:00:00Z,30.6671,-87.9365,0.904,0.11,1111122 
DISL,ioos:station:DISL:MHPA:1,2014-07-02T06:30:00Z,30.6671,-87.9365,0.891,0.11,1111122 
DISL,ioos:station:DISL:MHPA:1,2014-07-02T07:00:00Z,30.6671,-87.9365,0.882,0.11,1111122 
DISL,ioos:station:DISL:MHPA:1,2014-07-02T07:30:00Z,30.6671,-87.9365,0.892,0.11,1111122 
DISL,ioos:station:DISL:MHPA:1,2014-07-02T08:00:00Z,30.6671,-87.9365,0.911,0.11,1111122 
DISL,ioos:station:DISL:MHPA:1,2014-07-02T08:30:00Z,30.6671,-87.9365,0.928,0.11,1111122 
DISL,ioos:station:DISL:MHPA:1,2014-07-02T09:00:00Z,30.6671,-87.9365,0.924,0.11,1111122 
DISL,ioos:station:DISL:MHPA:1,2014-07-02T09:30:00Z,30.6671,-87.9365,0.922,0.11,1111122 
DISL,ioos:station:DISL:MHPA:1,2014-07-02T10:00:00Z,30.6671,-87.9365,0.928,0.11,1111122 
DISL,ioos:station:DISL:MHPA:1,2014-07-02T10:30:00Z,30.6671,-87.9365,0.927,0.11,1111122 
DISL,ioos:station:DISL:MHPA:1,2014-07-02T11:00:00Z,30.6671,-87.9365,0.946,0.11,1111122 
DISL,ioos:station:DISL:MHPA:1,2014-07-02T11:30:00Z,30.6671,-87.9365,0.967,0.11,1111122 
DISL,ioos:station:DISL:MHPA:1,2014-07-02T12:00:00Z,30.6671,-87.9365,0.964,0.11,1111122 
DISL,ioos:station:DISL:MHPA:1,2014-07-02T12:30:00Z,30.6671,-87.9365,0.97,0.11,1111122 
DISL,ioos:station:DISL:MHPA:1,2014-07-02T13:00:00Z,30.6671,-87.9365,0.99,0.11,1111122 
DISL,ioos:station:DISL:MHPA:1,2014-07-02T13:30:00Z,30.6671,-87.9365,1.01,0.11,1111122 
DISL,ioos:station:DISL:MHPA:1,2014-07-02T14:00:00Z,30.6671,-87.9365,1.008,0.11,1111122 
DISL,ioos:station:DISL:MHPA:1,2014-07-02T14:30:00Z,30.6671,-87.9365,0.998,0.11,1111122 
DISL,ioos:station:DISL:MHPA:1,2014-07-02T15:00:00Z,30.6671,-87.9365,1.016,0.11,1111122 
DISL,ioos:station:DISL:MHPA:1,2014-07-02T15:30:00Z,30.6671,-87.9365,1.034,0.11,1111122 
DISL,ioos:station:DISL:MHPA:1,2014-07-02T16:00:00Z,30.6671,-87.9365,1.054,0.11,1111122 
DISL,ioos:station:DISL:MHPA:1,2014-07-02T16:30:00Z,30.6671,-87.9365,1.076,0.11,1111122 
DISL,ioos:station:DISL:MHPA:1,2014-07-02T17:00:00Z,30.6671,-87.9365,1.105,0.11,1111122 
DISL,ioos:station:DISL:MHPA:1,2014-07-02T17:30:00Z,30.6671,-87.9365,1.133,0.11,1111122 
DISL,ioos:station:DISL:MHPA:1,2014-07-02T18:00:00Z,30.6671,-87.9365,1.17,0.11,1111122 
DISL,ioos:station:DISL:MHPA:1,2014-07-02T18:30:00Z,30.6671,-87.9365,1.208,0.11,1111122 
DISL,ioos:station:DISL:MHPA:1,2014-07-02T19:00:00Z,30.6671,-87.9365,1.239,0.11,1111122 
DISL,ioos:station:DISL:MHPA:1,2014-07-02T19:30:00Z,30.6671,-87.9365,1.236,0.11,1111122 
DISL,ioos:station:DISL:MHPA:1,2014-07-02T20:00:00Z,30.6671,-87.9365,1.248,0.11,1111122 
DISL,ioos:station:DISL:MHPA:1,2014-07-02T20:30:00Z,30.6671,-87.9365,1.239,0.11,1111122 
DISL,ioos:station:DISL:MHPA:1,2014-07-02T21:00:00Z,30.6671,-87.9365,1.216,0.11,1111122 
DISL,ioos:station:DISL:MHPA:1,2014-07-02T21:30:00Z,30.6671,-87.9365,1.212,0.11,1111122 
DISL,ioos:station:DISL:MHPA:1,2014-07-02T22:00:00Z,30.6671,-87.9365,1.231,0.11,1111122 
DISL,ioos:station:DISL:MHPA:1,2014-07-02T22:30:00Z,30.6671,-87.9365,1.225,0.11,1111122 
DISL,ioos:station:DISL:MHPA:1,2014-07-02T23:00:00Z,30.6671,-87.9365,1.194,0.11,1111122 
DISL,ioos:station:DISL:MHPA:1,2014-07-02T23:30:00Z,30.6671,-87.9365,1.164,0.11,1111122 
DISL,ioos:station:DISL:MHPA:1,2014-07-03T00:00:00Z,30.6671,-87.9365,1.139,0.11,1111122 
DISL,ioos:station:DISL:MHPA:1,2014-07-03T00:30:00Z,30.6671,-87.9365,1.111,0.11,1111122 
DISL,ioos:station:DISL:MHPA:1,2014-07-03T01:00:00Z,30.6671,-87.9365,1.081,0.11,1111122 
DISL,ioos:station:DISL:MHPA:1,2014-07-03T01:30:00Z,30.6671,-87.9365,1.054,0.11,1111122 
DISL,ioos:station:DISL:MHPA:1,2014-07-03T02:00:00Z,30.6671,-87.9365,1.026,0.11,1111122 
DISL,ioos:station:DISL:MHPA:1,2014-07-03T02:30:00Z,30.6671,-87.9365,0.996,0.11,1111122 
DISL,ioos:station:DISL:MHPA:1,2014-07-03T03:00:00Z,30.6671,-87.9365,0.964,0.11,1111122 
DISL,ioos:station:DISL:MHPA:1,2014-07-03T03:30:00Z,30.6671,-87.9365,0.934,0.11,1111122 
DISL,ioos:station:DISL:MHPA:1,2014-07-03T04:00:00Z,30.6671,-87.9365,0.902,0.11,1111122 
DISL,ioos:station:DISL:MHPA:1,2014-07-03T04:30:00Z,30.6671,-87.9365,0.874,0.11,1111122 
DISL,ioos:station:DISL:MHPA:1,2014-07-03T05:00:00Z,30.6671,-87.9365,0.846,0.11,1111122 
DISL,ioos:station:DISL:MHPA:1,2014-07-03T05:30:00Z,30.6671,-87.9365,0.818,0.11,1111122 
DISL,ioos:station:DISL:MHPA:1,2014-07-03T06:00:00Z,30.6671,-87.9365,0.794,0.11,1111122 
DISL,ioos:station:DISL:MHPA:1,2014-07-03T06:30:00Z,30.6671,-87.9365,0.795,0.11,1111122 
DISL,ioos:station:DISL:MHPA:1,2014-07-03T07:00:00Z,30.6671,-87.9365,0.817,0.11,1111122 
DISL,ioos:station:DISL:MHPA:1,2014-07-03T07:30:00Z,30.6671,-87.9365,0.844,0.11,1111122 
DISL,ioos:station:DISL:MHPA:1,2014-07-03T08:00:00Z,30.6671,-87.9365,0.852,0.11,1111122 
DISL,ioos:station:DISL:MHPA:1,2014-07-03T08:30:00Z,30.6671,-87.9365,0.838,0.11,1111122 
DISL,ioos:station:DISL:MHPA:1,2014-07-03T09:00:00Z,30.6671,-87.9365,0.833,0.11,1111122 
DISL,ioos:station:DISL:MHPA:1,2014-07-03T09:30:00Z,30.6671,-87.9365,0.83,0.11,1111122 
DISL,ioos:station:DISL:MHPA:1,2014-07-03T10:00:00Z,30.6671,-87.9365,0.825,0.11,1111122 
DISL,ioos:station:DISL:MHPA:1,2014-07-03T10:30:00Z,30.6671,-87.9365,0.846,0.11,1111122 
DISL,ioos:station:DISL:MHPA:1,2014-07-03T11:00:00Z,30.6671,-87.9365,0.894,0.11,1111122 
DISL,ioos:station:DISL:MHPA:1,2014-07-03T11:30:00Z,30.6671,-87.9365,0.94,0.11,1111122 
DISL,ioos:station:DISL:MHPA:1,2014-07-03T12:00:00Z,30.6671,-87.9365,0.966,0.11,1111122 
DISL,ioos:station:DISL:MHPA:1,2014-07-03T12:30:00Z,30.6671,-87.9365,1.008,0.11,1111122 
DISL,ioos:station:DISL:MHPA:1,2014-07-03T13:00:00Z,30.6671,-87.9365,1.05,0.11,1111122 
DISL,ioos:station:DISL:MHPA:1,2014-07-03T13:30:00Z,30.6671,-87.9365,1.055,0.11,1111122 
DISL,ioos:station:DISL:MHPA:1,2014-07-03T14:00:00Z,30.6671,-87.9365,1.08,0.11,1111122 
DISL,ioos:station:DISL:MHPA:1,2014-07-03T14:30:00Z,30.6671,-87.9365,1.094,0.11,1111122 
DISL,ioos:station:DISL:MHPA:1,2014-07-03T15:00:00Z,30.6671,-87.9365,1.094,0.11,1111122 
DISL,ioos:station:DISL:MHPA:1,2014-07-03T15:30:00Z,30.6671,-87.9365,1.069,0.11,1111122 
DISL,ioos:station:DISL:MHPA:1,2014-07-03T16:00:00Z,30.6671,-87.9365,1.084,0.11,1111122 
DISL,ioos:station:DISL:MHPA:1,2014-07-03T16:30:00Z,30.6671,-87.9365,1.076,0.11,1111122 
DISL,ioos:station:DISL:MHPA:1,2014-07-03T17:00:00Z,30.6671,-87.9365,1.055,0.11,1111122 
DISL,ioos:station:DISL:MHPA:1,2014-07-03T17:30:00Z,30.6671,-87.9365,1.054,0.11,1111122 
DISL,ioos:station:DISL:MHPA:1,2014-07-03T18:00:00Z,30.6671,-87.9365,1.047,0.11,1111122 
DISL,ioos:station:DISL:MHPA:1,2014-07-03T18:30:00Z,30.6671,-87.9365,1.026,0.11,1111122 
DISL,ioos:station:DISL:MHPA:1,2014-07-03T19:00:00Z,30.6671,-87.9365,1.005,0.11,1111122 
DISL,ioos:station:DISL:MHPA:1,2014-07-03T19:30:00Z,30.6671,-87.9365,1.016,0.12,1111122 
DISL,ioos:station:DISL:MHPA:1,2014-07-03T20:00:00Z,30.6671,-87.9365,1.031,0.11,1111122 
DISL,ioos:station:DISL:MHPA:1,2014-07-03T20:30:00Z,30.6671,-87.9365,1.017,0.11,1111122 
DISL,ioos:station:DISL:MHPA:1,2014-07-03T21:00:00Z,30.6671,-87.9365,1.029,0.11,1111122 
DISL,ioos:station:DISL:MHPA:1,2014-07-03T21:30:00Z,30.6671,-87.9365,1.028,0.11,1111122 
DISL,ioos:station:DISL:MHPA:1,2014-07-03T22:00:00Z,30.6671,-87.9365,1.025,0.11,1111122 
DISL,ioos:station:DISL:MHPA:1,2014-07-03T22:30:00Z,30.6671,-87.9365,1.025,0.11,1111122 
DISL,ioos:station:DISL:MHPA:1,2014-07-03T23:00:00Z,30.6671,-87.9365,1.021,0.11,1111122 
DISL,ioos:station:DISL:MHPA:1,2014-07-03T23:30:00Z,30.6671,-87.9365,1.021,0.11,1111122 
DISL,ioos:station:DISL:MHPA:1,2014-07-04T00:00:00Z,30.6671,-87.9365,1.017,0.11,1111122 
DISL,ioos:station:DISL:MHPA:1,2014-07-04T00:30:00Z,30.6671,-87.9365,1.038,0.11,1111122 
DISL,ioos:station:DISL:MHPA:1,2014-07-04T01:00:00Z,30.6671,-87.9365,1.034,0.11,1111122 
DISL,ioos:station:DISL:MHPA:1,2014-07-04T01:30:00Z,30.6671,-87.9365,1.028,0.11,1111122 
DISL,ioos:station:DISL:MHPA:1,2014-07-04T02:00:00Z,30.6671,-87.9365,1.011,0.11,1111122 
DISL,ioos:station:DISL:MHPA:1,2014-07-04T02:30:00Z,30.6671,-87.9365,0.988,0.11,1111122 
DISL,ioos:station:DISL:MHPA:1,2014-07-04T03:00:00Z,30.6671,-87.9365,0.965,0.11,1111122 
DISL,ioos:station:DISL:MHPA:1,2014-07-04T03:30:00Z,30.6671,-87.9365,0.938,0.11,1111122 
DISL,ioos:station:DISL:MHPA:1,2014-07-04T04:00:00Z,30.6671,-87.9365,0.916,0.11,1111122 
DISL,ioos:station:DISL:MHPA:1,2014-07-04T04:30:00Z,30.6671,-87.9365,0.915,0.11,1111122 
DISL,ioos:station:DISL:MHPA:1,2014-07-04T05:00:00Z,30.6671,-87.9365,0.903,0.11,1111122 
DISL,ioos:station:DISL:MHPA:1,2014-07-04T05:30:00Z,30.6671,-87.9365,0.894,0.11,1111122 
DISL,ioos:station:DISL:MHPA:1,2014-07-04T06:00:00Z,30.6671,-87.9365,0.901,0.11,1111122 
DISL,ioos:station:DISL:MHPA:1,2014-07-04T06:30:00Z,30.6671,-87.9365,0.908,0.11,1111122 
DISL,ioos:station:DISL:MHPA:1,2014-07-04T07:00:00Z,30.6671,-87.9365,0.901,0.11,1111122 
DISL,ioos:station:DISL:MHPA:1,2014-07-04T07:30:00Z,30.6671,-87.9365,0.914,0.11,1111122 
DISL,ioos:station:DISL:MHPA:1,2014-07-04T08:00:00Z,30.6671,-87.9365,0.921,0.11,1111122 
DISL,ioos:station:DISL:MHPA:1,2014-07-04T08:30:00Z,30.6671,-87.9365,0.922,0.11,1111122 
DISL,ioos:station:DISL:MHPA:1,2014-07-04T09:00:00Z,30.6671,-87.9365,0.936,0.11,1111122 
DISL,ioos:station:DISL:MHPA:1,2014-07-04T09:30:00Z,30.6671,-87.9365,0.939,0.11,1111122 
DISL,ioos:station:DISL:MHPA:1,2014-07-04T10:00:00Z,30.6671,-87.9365,0.937,0.11,1111122 
DISL,ioos:station:DISL:MHPA:1,2014-07-04T10:30:00Z,30.6671,-87.9365,0.952,0.11,1111122 
DISL,ioos:station:DISL:MHPA:1,2014-07-04T11:00:00Z,30.6671,-87.9365,0.954,0.11,1111122 
DISL,ioos:station:DISL:MHPA:1,2014-07-04T11:30:00Z,30.6671,-87.9365,0.942,0.11,1111122 
DISL,ioos:station:DISL:MHPA:1,2014-07-04T12:00:00Z,30.6671,-87.9365,0.959,0.11,1111122 
DISL,ioos:station:DISL:MHPA:1,2014-07-04T12:30:00Z,30.6671,-87.9365,0.966,0.11,1111122 
DISL,ioos:station:DISL:MHPA:1,2014-07-04T13:00:00Z,30.6671,-87.9365,0.973,0.11,1111122 
DISL,ioos:station:DISL:MHPA:1,2014-07-04T13:30:00Z,30.6671,-87.9365,0.983,0.11,1111122 
DISL,ioos:station:DISL:MHPA:1,2014-07-04T14:00:00Z,30.6671,-87.9365,0.981,0.11,1111122 
DISL,ioos:station:DISL:MHPA:1,2014-07-04T14:30:00Z,30.6671,-87.9365,0.977,0.11,1111122 
DISL,ioos:station:DISL:MHPA:1,2014-07-04T15:00:00Z,30.6671,-87.9365,0.989,0.11,1111122 
DISL,ioos:station:DISL:MHPA:1,2014-07-04T15:30:00Z,30.6671,-87.9365,0.995,0.12,1111122 
DISL,ioos:station:DISL:MHPA:1,2014-07-04T16:00:00Z,30.6671,-87.9365,0.984,0.11,1111122 
DISL,ioos:station:DISL:MHPA:1,2014-07-04T16:30:00Z,30.6671,-87.9365,0.97,0.11,1111122 
DISL,ioos:station:DISL:MHPA:1,2014-07-04T17:00:00Z,30.6671,-87.9365,0.959,0.11,1111122 
DISL,ioos:station:DISL:MHPA:1,2014-07-04T17:30:00Z,30.6671,-87.9365,0.96,0.11,1111122 
DISL,ioos:station:DISL:MHPA:1,2014-07-04T18:00:00Z,30.6671,-87.9365,0.977,0.11,1111122 
DISL,ioos:station:DISL:MHPA:1,2014-07-04T18:30:00Z,30.6671,-87.9365,0.981,0.11,1111122 
DISL,ioos:station:DISL:MHPA:1,2014-07-04T19:00:00Z,30.6671,-87.9365,0.977,0.11,1111122 
DISL,ioos:station:DISL:MHPA:1,2014-07-04T19:30:00Z,30.6671,-87.9365,0.983,0.11,1111122 
DISL,ioos:station:DISL:MHPA:1,2014-07-04T20:00:00Z,30.6671,-87.9365,0.979,0.12,1111122 
DISL,ioos:station:DISL:MHPA:1,2014-07-04T20:30:00Z,30.6671,-87.9365,0.981,0.12,1111122 
DISL,ioos:station:DISL:MHPA:1,2014-07-04T21:00:00Z,30.6671,-87.9365,0.997,0.11,1111122 
DISL,ioos:station:DISL:MHPA:1,2014-07-04T21:30:00Z,30.6671,-87.9365,0.989,0.11,1111122 
DISL,ioos:station:DISL:MHPA:1,2014-07-04T22:00:00Z,30.6671,-87.9365,0.969,0.11,1111122 
DISL,ioos:station:DISL:MHPA:1,2014-07-04T22:30:00Z,30.6671,-87.9365,0.953,0.11,1111122 
DISL,ioos:station:DISL:MHPA:1,2014-07-04T23:00:00Z,30.6671,-87.9365,0.942,0.11,1111122 
DISL,ioos:station:DISL:MHPA:1,2014-07-04T23:30:00Z,30.6671,-87.9365,0.925,0.11,1111122 
DISL,ioos:station:DISL:MHPA:1,2014-07-05T00:00:00Z,30.6671,-87.9365,0.908,0.11,1111122 
DISL,ioos:station:DISL:MHPA:1,2014-07-05T00:30:00Z,30.6671,-87.9365,0.893,0.11,1111122 
DISL,ioos:station:DISL:MHPA:1,2014-07-05T01:00:00Z,30.6671,-87.9365,0.885,0.11,1111122 
DISL,ioos:station:DISL:MHPA:1,2014-07-05T01:30:00Z,30.6671,-87.9365,0.878,0.11,1111122 
DISL,ioos:station:DISL:MHPA:1,2014-07-05T02:00:00Z,30.6671,-87.9365,0.872,0.11,1111122 
DISL,ioos:station:DISL:MHPA:1,2014-07-05T02:30:00Z,30.6671,-87.9365,0.865,0.11,1111122 
DISL,ioos:station:DISL:MHPA:1,2014-07-05T03:00:00Z,30.6671,-87.9365,0.853,0.11,1111122 
DISL,ioos:station:DISL:MHPA:1,2014-07-05T03:30:00Z,30.6671,-87.9365,0.834,0.11,1111122 
DISL,ioos:station:DISL:MHPA:1,2014-07-05T04:00:00Z,30.6671,-87.9365,0.818,0.11,1111122 
DISL,ioos:station:DISL:MHPA:1,2014-07-05T04:30:00Z,30.6671,-87.9365,0.806,0.11,1111122 
DISL,ioos:station:DISL:MHPA:1,2014-07-05T05:00:00Z,30.6671,-87.9365,0.791,0.11,1111122 
DISL,ioos:station:DISL:MHPA:1,2014-07-05T05:30:00Z,30.6671,-87.9365,0.783,0.11,1111122 
DISL,ioos:station:DISL:MHPA:1,2014-07-05T06:00:00Z,30.6671,-87.9365,0.787,0.11,1111122 
DISL,ioos:station:DISL:MHPA:1,2014-07-05T06:30:00Z,30.6671,-87.9365,0.794,0.11,1111122 
DISL,ioos:station:DISL:MHPA:1,2014-07-05T07:00:00Z,30.6671,-87.9365,0.805,0.11,1111122 
DISL,ioos:station:DISL:MHPA:1,2014-07-05T07:30:00Z,30.6671,-87.9365,0.822,0.11,1111122 
DISL,ioos:station:DISL:MHPA:1,2014-07-05T08:00:00Z,30.6671,-87.9365,0.838,0.11,1111122 
DISL,ioos:station:DISL:MHPA:1,2014-07-05T08:30:00Z,30.6671,-87.9365,0.86,0.11,1111122 
DISL,ioos:station:DISL:MHPA:1,2014-07-05T09:00:00Z,30.6671,-87.9365,0.884,0.11,1111122 
DISL,ioos:station:DISL:MHPA:1,2014-07-05T09:30:00Z,30.6671,-87.9365,0.909,0.11,1111122 
DISL,ioos:station:DISL:MHPA:1,2014-07-05T10:00:00Z,30.6671,-87.9365,0.933,0.11,1111122 
DISL,ioos:station:DISL:MHPA:1,2014-07-05T10:30:00Z,30.6671,-87.9365,0.966,0.11,1111122 
DISL,ioos:station:DISL:MHPA:1,2014-07-05T11:00:00Z,30.6671,-87.9365,0.989,0.11,1111122 
DISL,ioos:station:DISL:MHPA:1,2014-07-05T11:30:00Z,30.6671,-87.9365,1.013,0.11,1111122 
DISL,ioos:station:DISL:MHPA:1,2014-07-05T12:00:00Z,30.6671,-87.9365,1.039,0.11,1111122 
DISL,ioos:station:DISL:MHPA:1,2014-07-05T12:30:00Z,30.6671,-87.9365,1.055,0.11,1111122 
DISL,ioos:station:DISL:MHPA:1,2014-07-05T13:00:00Z,30.6671,-87.9365,1.062,0.11,1111122 
DISL,ioos:station:DISL:MHPA:1,2014-07-05T13:30:00Z,30.6671,-87.9365,1.067,0.11,1111122 
DISL,ioos:station:DISL:MHPA:1,2014-07-05T14:00:00Z,30.6671,-87.9365,1.077,0.11,1111122 
DISL,ioos:station:DISL:MHPA:1,2014-07-05T14:30:00Z,30.6671,-87.9365,1.081,0.12,1111122 
DISL,ioos:station:DISL:MHPA:1,2014-07-05T15:00:00Z,30.6671,-87.9365,1.09,0.12,1111122 
DISL,ioos:station:DISL:MHPA:1,2014-07-05T15:30:00Z,30.6671,-87.9365,1.09,0.12,1111122 
DISL,ioos:station:DISL:MHPA:1,2014-07-05T16:00:00Z,30.6671,-87.9365,1.095,0.12,1111122 
DISL,ioos:station:DISL:MHPA:1,2014-07-05T16:30:00Z,30.6671,-87.9365,1.089,0.12,1111122 
DISL,ioos:station:DISL:MHPA:1,2014-07-05T17:00:00Z,30.6671,-87.9365,1.072,0.12,1111122 
DISL,ioos:station:DISL:MHPA:1,2014-07-05T17:30:00Z,30.6671,-87.9365,1.065,0.12,1111122 
DISL,ioos:station:DISL:MHPA:1,2014-07-05T18:00:00Z,30.6671,-87.9365,1.058,0.12,1111122 
DISL,ioos:station:DISL:MHPA:1,2014-07-05T18:30:00Z,30.6671,-87.9365,1.042,0.12,1111122 
DISL,ioos:station:DISL:MHPA:1,2014-07-05T19:00:00Z,30.6671,-87.9365,1.046,0.12,1111122 
DISL,ioos:station:DISL:MHPA:1,2014-07-05T19:30:00Z,30.6671,-87.9365,1.045,0.12,1111122 
DISL,ioos:station:DISL:MHPA:1,2014-07-05T20:00:00Z,30.6671,-87.9365,1.036,0.12,1111122 
DISL,ioos:station:DISL:MHPA:1,2014-07-05T20:30:00Z,30.6671,-87.9365,1.028,0.12,1111122 
DISL,ioos:station:DISL:MHPA:1,2014-07-05T21:00:00Z,30.6671,-87.9365,1.031,0.12,1111122 
DISL,ioos:station:DISL:MHPA:1,2014-07-05T21:30:00Z,30.6671,-87.9365,1.035,0.12,1111122 
DISL,ioos:station:DISL:MHPA:1,2014-07-05T22:00:00Z,30.6671,-87.9365,1.035,0.12,1111122 
DISL,ioos:station:DISL:MHPA:1,2014-07-05T22:30:00Z,30.6671,-87.9365,1.032,0.12,1111122 
DISL,ioos:station:DISL:MHPA:1,2014-07-05T23:00:00Z,30.6671,-87.9365,1.046,0.12,1111122 
DISL,ioos:station:DISL:MHPA:1,2014-07-05T23:30:00Z,30.6671,-87.9365,1.044,0.12,1111122 
DISL,ioos:station:DISL:MHPA:1,2014-07-06T00:00:00Z,30.6671,-87.9365,1.023,0.12,1111122 
DISL,ioos:station:DISL:MHPA:1,2014-07-06T00:30:00Z,30.6671,-87.9365,1.024,0.12,1111122 
DISL,ioos:station:DISL:MHPA:1,2014-07-06T01:00:00Z,30.6671,-87.9365,1.02,0.12,1111122 
DISL,ioos:station:DISL:MHPA:1,2014-07-06T01:30:00Z,30.6671,-87.9365,0.995,0.12,1111122 
DISL,ioos:station:DISL:MHPA:1,2014-07-06T02:00:00Z,30.6671,-87.9365,0.978,0.14,1111122 
DISL,ioos:station:DISL:MHPA:1,2014-07-06T02:30:00Z,30.6671,-87.9365,0.973,0.15,1111122 
DISL,ioos:station:DISL:MHPA:1,2014-07-06T03:00:00Z,30.6671,-87.9365,0.973,0.15,1111122 
DISL,ioos:station:DISL:MHPA:1,2014-07-06T03:30:00Z,30.6671,-87.9365,0.959,0.15,1111122 
DISL,ioos:station:DISL:MHPA:1,2014-07-06T04:00:00Z,30.6671,-87.9365,0.959,0.14,1111122 
DISL,ioos:station:DISL:MHPA:1,2014-07-06T04:30:00Z,30.6671,-87.9365,0.973,0.13,1111122 
DISL,ioos:station:DISL:MHPA:1,2014-07-06T05:00:00Z,30.6671,-87.9365,0.975,0.13,1111122 
DISL,ioos:station:DISL:MHPA:1,2014-07-06T05:30:00Z,30.6671,-87.9365,0.978,0.13,1111122 
DISL,ioos:station:DISL:MHPA:1,2014-07-06T06:00:00Z,30.6671,-87.9365,0.987,0.14,1111122 
DISL,ioos:station:DISL:MHPA:1,2014-07-06T06:30:00Z,30.6671,-87.9365,0.988,0.16,1111122 
DISL,ioos:station:DISL:MHPA:1,2014-07-06T07:00:00Z,30.6671,-87.9365,0.993,0.16,1111122 
DISL,ioos:station:DISL:MHPA:1,2014-07-06T07:30:00Z,30.6671,-87.9365,0.989,0.16,1111122 
DISL,ioos:station:DISL:MHPA:1,2014-07-06T08:00:00Z,30.6671,-87.9365,1.004,0.16,1111122 
DISL,ioos:station:DISL:MHPA:1,2014-07-06T08:30:00Z,30.6671,-87.9365,1.024,0.16,1111122 
DISL,ioos:station:DISL:MHPA:1,2014-07-06T09:00:00Z,30.6671,-87.9365,1.027,0.15,1111122 
DISL,ioos:station:DISL:MHPA:1,2014-07-06T09:30:00Z,30.6671,-87.9365,1.05,0.15,1111122 
DISL,ioos:station:DISL:MHPA:1,2014-07-06T10:00:00Z,30.6671,-87.9365,1.074,0.15,1111122 
DISL,ioos:station:DISL:MHPA:1,2014-07-06T10:30:00Z,30.6671,-87.9365,1.097,0.16,1111122 
DISL,ioos:station:DISL:MHPA:1,2014-07-06T11:00:00Z,30.6671,-87.9365,1.106,0.16,1111122 
DISL,ioos:station:DISL:MHPA:1,2014-07-06T11:30:00Z,30.6671,-87.9365,1.122,0.16,1111122 
DISL,ioos:station:DISL:MHPA:1,2014-07-06T12:00:00Z,30.6671,-87.9365,1.12,0.16,1111122 
DISL,ioos:station:DISL:MHPA:1,2014-07-06T12:30:00Z,30.6671,-87.9365,1.119,0.14,1111122 
DISL,ioos:station:DISL:MHPA:1,2014-07-06T13:00:00Z,30.6671,-87.9365,1.125,0.15,1111122 
DISL,ioos:station:DISL:MHPA:1,2014-07-06T13:30:00Z,30.6671,-87.9365,1.124,0.16,1111122 
DISL,ioos:station:DISL:MHPA:1,2014-07-06T14:00:00Z,30.6671,-87.9365,1.121,0.16,1111122 
DISL,ioos:station:DISL:MHPA:1,2014-07-06T14:30:00Z,30.6671,-87.9365,1.12,0.16,1111122 
DISL,ioos:station:DISL:MHPA:1,2014-07-06T15:00:00Z,30.6671,-87.9365,1.13,0.24,1111122 
DISL,ioos:station:DISL:MHPA:1,2014-07-06T15:30:00Z,30.6671,-87.9365,1.12,0.21,1111122 